Temp
10 10 10 10 10 10 10 10 10 10 10 9 9 9 9 9 9 9 9 9 8 8 8 8 8 8 8 8 8 8 8 8 8 8 7 7 7 7 7 7 6 6 6 6 6 6 6 6 6 5 5 5 5 5 5 5 4 4 5 5 5 5
10 10 11 10 10 10 10 10 10 10 10 9 9 9 9 9 9 9 9 9 9 8 8 8 8 8 8 8 8 8 8 8 8 7 7 7 7 7 7 7 6 6 6 6 6 6 6 6 5 5 5 5 5 5 5 4 4 5 5 5 5 5
11 11 11 11 10 10 10 10 10 10 10 9 9 9 9 9 9 9 9 9 9 8 8 8 8 8 8 8 8 8 8 8 7 7 7 7 7 7 7 7 6 6 6 6 6 6 6 6 5 5 5 5 5 5 5 4 5 5 4 4 5 5
11 11 11 11 11 10 10 10 10 10 10 9 9 9 9 9 9 9 9 9 9 8 8 8 8 8 8 8 8 8 8 8 7 7 7 7 7 7 7 7 6 6 6 6 6 6 6 6 5 5 5 5 5 5 4 4 5 5 4 5 5 4
11 11 11 11 11 10 10 10 10 10 10 9 9 9 9 9 9 9 9 9 9 8 8 8 8 8 8 8 8 8 8 8 7 7 7 7 7 7 7 7 6 6 6 6 6 6 6 6 5 5 5 5 5 5 4 4 5 5 4 5 5 4
11 11 11 11 10 10 10 10 10 10 10 10 9 9 9 9 9 9 9 9 9 9 8 8 8 8 8 8 8 8 8 7 7 7 7 7 7 7 7 6 6 6 6 6 6 6 6 5 5 5 5 5 5 4 4 5 5 5 4 4 4 4
11 11 11 11 10 10 10 10 10 10 10 10 9 9 9 9 10 10 9 9 9 9 8 8 8 8 8 8 8 8 7 7 7 7 7 7 7 7 7 6 6 6 6 6 6 6 5 5 5 5 5 5 5 4 4 5 5 5 4 4 4 4
11 11 11 11 10 10 10 10 10 10 10 10 10 9 9 9 10 10 10 9 9 9 9 8 8 8 8 8 8 8 7 7 7 7 7 7 7 7 7 6 6 6 6 6 6 6 5 5 5 5 5 5 5 4 5 5 5 5 4 4 4 4
11 11 11 11 10 10 10 10 10 10 10 10 10 9 9 9 10 10 10 10 9 9 9 9 9 8 8 8 8 8 7 7 7 7 7 7 7 7 6 6 6 6 6 6 6 5 5 5 5 5 5 5 5 5 5 5 5 5 4 4 4 4
11 11 11 11 10 10 10 10 10 10 10 10 10 9 9 9 10 10 10 10 9 9 9 9 9 9 8 8 8 8 7 7 7 7 7 7 7 7 6 6 6 6 6 6 6 5 5 5 4 4 4 5 5 5 4 4 5 5 4 4 4 4
11 11 11 11 11 11 10 10 10 10 10 10 10 9 9 9 10 10 10 10 10 9 9 9 9 9 9 8 8 8 8 7 7 7 7 7 7 7 6 6 6 6 6 6 6 5 5 5 4 4 4 4 5 4 4 4 5 5 4 4 4 4
11 11 11 11 11 11 11 10 10 10 10 10 10 10 9 9 10 10 10 10 10 10 10 9 9 9 9 8 8 8 8 7 7 7 7 7 7 7 6 6 6 6 6 6 6 5 5 5 4 4 4 4 4 4 4 4 4 5 4 4 4 4
11 11 11 11 11 11 11 11 11 10 10 10 10 10 10 10 10 10 10 10 10 10 10 9 9 9 9 8 8 8 8 8 7 7 7 7 7 7 6 6 6 6 6 6 5 5 5 5 4 4 4 4 4 4 4 4 4 4 4 4 4 4
11 11 11 11 11 11 11 11 11 11 11 10 10 10 10 10 10 10 10 10 10 10 10 9 9 9 9 8 8 8 8 8 8 7 7 7 7 6 6 6 6 6 6 5 5 5 5 5 4 4 4 4 4 4 4 4 4 4 4 4 4 4
11 11 11 11 11 11 11 11 11 11 11 11 10 10 10 10 10 10 10 10 10 10 10 9 9 9 9 8 8 8 8 8 8 7 7 7 7 6 6 6 6 5 5 5 5 5 5 5 4 4 4 4 4 4 4 4 4 4 4 4 4 4
11 11 11 11 11 11 11 11 11 11 11 11 11 10 10 10 10 10 10 10 10 10 10 9 9 9 8 8 8 8 8 8 7 7 7 7 7 6 6 6 5 5 5 5 5 5 5 5 5 5 5 5 4 4 4 4 4 4 4 4 4 4
11 11 11 11 11 11 11 11 11 11 11 11 11 10 10 10 10 10 10 10 10 9 9 9 9 9 8 8 8 8 8 8 7 7 7 7 7 6 6 6 5 5 5 5 5 5 5 5 5 4 4 4 4 4 4 4 3 3 3 4 4 4
11 11 11 11 11 11 11 11 11 11 11 11 11 11 11 10 10 10 9 9 9 9 9 9 9 9 8 8 8 8 8 8 7 7 7 7 7 6 6 5 5 5 5 5 5 5 5 5 4 4 4 4 4 4 4 3 3 3 3 4 4 4
11 11 11 11 11 11 11 11 11 11 11 11 11 10 11 10 10 9 9 9 9 9 9 9 9 9 8 8 8 8 8 7 7 7 7 6 6 6 6 5 5 5 5 5 5 5 5 5 4 4 4 4 4 4 3 3 3 3 3 3 4 4
11 11 11 11 11 11 11 11 11 10 10 10 10 10 10 10 10 9 9 9 9 9 9 9 9 9 8 8 8 8 8 7 7 7 6 6 6 6 6 5 6 6 6 5 5 5 5 5 4 4 4 4 4 4 3 3 3 3 3 3 4 4
10 10 11 11 11 11 10 10 10 10 10 10 10 10 10 10 10 9 9 9 9 9 9 9 9 9 9 8 8 8 8 7 7 7 6 6 6 6 6 6 6 6 6 6 5 5 5 4 4 4 4 4 3 3 3 3 3 3 3 3 4 4
10 10 11 11 10 10 10 10 10 10 10 10 10 10 10 10 10 9 9 9 9 9 9 9 9 9 9 8 8 8 8 7 7 7 6 6 6 6 6 6 6 6 6 5 5 5 5 4 4 4 4 4 3 3 3 3 3 3 3 3 4 4
10 10 10 10 10 10 10 10 10 10 10 10 10 10 10 10 10 9 9 8 9 9 8 8 9 8 8 8 8 8 7 7 7 7 7 6 6 6 6 6 6 6 5 5 4 4 4 4 4 4 4 4 3 3 3 3 3 3 3 3 4 4
10 10 10 10 10 10 10 10 10 10 10 10 10 10 10 10 10 9 9 9 9 8 8 8 8 8 8 8 8 8 7 7 7 7 7 6 6 6 6 6 6 6 5 5 4 5 4 4 4 4 4 3 3 3 3 3 3 3 3 3 4 4
10 10 10 10 10 10 10 10 10 10 10 10 10 10 10 10 10 10 9 9 9 8 8 8 8 8 8 8 8 8 7 7 7 7 6 6 6 6 6 6 6 5 5 5 4 5 4 4 4 4 3 3 3 3 3 3 3 3 3 3 3 4
10 10 10 10 10 10 10 10 10 10 10 10 10 10 10 10 10 10 9 9 9 8 8 8 8 8 8 8 8 7 7 7 7 7 6 6 6 6 6 6 5 5 5 5 4 4 4 4 4 4 4 4 3 3 3 3 3 3 2 3 3 4
10 10 10 10 10 10 10 10 10 10 10 10 10 10 10 10 10 10 9 9 8 8 8 8 8 8 8 8 7 7 7 7 7 7 6 6 6 6 6 6 5 5 5 5 4 4 4 4 4 4 4 3 3 3 3 3 3 2 2 3 4 4
10 10 10 10 10 10 10 10 10 9 9 10 10 9 9 10 10 10 9 9 8 8 8 8 9 8 8 8 8 7 7 7 7 7 6 6 5 5 6 6 5 5 5 5 5 4 4 4 4 4 3 3 3 3 3 3 3 2 2 3 4 4
10 10 10 10 10 10 10 10 9 9 9 9 9 9 9 10 10 9 9 9 9 8 8 8 9 8 8 8 8 7 7 7 7 7 7 6 5 5 5 6 6 5 5 5 5 4 4 4 4 4 4 3 3 3 3 3 3 3 3 3 3 4
10 10 10 10 10 10 10 10 9 9 9 9 9 9 9 9 9 9 9 9 9 8 8 8 8 9 8 8 8 7 7 7 7 7 7 6 5 5 5 5 6 6 5 5 4 4 4 4 4 4 4 3 3 3 3 3 3 3 3 3 3 3
10 10 10 10 10 10 10 10 9 9 9 9 9 9 9 9 9 9 9 9 9 8 8 8 9 9 8 8 8 7 7 7 7 7 7 6 5 5 4 4 5 5 6 5 4 4 4 4 4 4 4 3 3 3 3 3 3 2 2 2 3 3
10 10 10 10 10 10 10 10 9 9 9 9 9 9 9 9 9 9 9 9 9 8 8 8 9 9 8 8 8 8 7 7 7 7 7 6 6 5 5 4 4 5 5 5 5 4 4 4 4 4 4 3 3 3 2 2 2 2 2 2 3 3
10 10 10 10 10 10 10 10 10 9 9 9 9 9 9 9 9 9 9 9 9 8 8 8 8 9 9 9 8 8 8 7 7 7 7 7 6 5 5 4 4 4 5 5 5 4 4 4 4 3 3 3 3 3 2 2 2 2 3 3 3 3
10 10 10 10 10 10 10 10 10 9 9 9 9 9 9 9 9 9 9 9 9 8 8 8 8 9 9 9 9 8 8 7 7 7 7 7 6 6 5 5 4 4 4 5 5 5 4 4 4 3 3 3 3 2 2 2 2 2 3 2 2 3
10 10 10 10 10 10 10 10 10 9 9 9 9 9 9 9 9 9 9 9 9 8 8 8 8 8 9 9 9 8 8 7 7 7 7 7 7 6 5 5 5 4 4 4 4 4 4 4 4 3 2 2 2 2 2 2 2 3 3 2 2 3
10 10 10 10 10 10 10 10 10 10 9 9 9 9 9 9 9 9 9 9 9 8 8 8 8 8 9 9 8 8 8 8 7 7 7 7 7 6 6 5 5 5 4 4 3 4 4 3 3 3 2 2 2 2 2 2 2 2 2 3 3 3
10 10 10 10 10 10 10 10 10 10 10 9 9 9 9 9 9 9 9 9 9 8 8 8 8 8 9 9 8 8 8 8 8 8 8 7 7 7 6 6 5 5 4 4 4 3 3 3 3 3 3 2 2 1 1 1 2 2 2 3 3 3
Height
3196 3197 3198 3199 3200 3201 3202 3203 3204 3205 3205 3205 3206 3206 3206 3206 3206 3206 3206 3206 3206 3206 3205 3205 3205 3205 3205 3205 3205 3205 3205 3205 3206 3205 3205 3205 3205 3205 3204 3204 3204 3204 3204 3203 3203 3203 3202 3202 3202 3201 3201 3200 3199 3199 3198 3197 3196 3194 3192 3193 3194 3194
3195 3196 3197 3198 3200 3201 3202 3203 3204 3204 3205 3205 3205 3205 3206 3206 3205 3205 3205 3205 3205 3205 3205 3205 3205 3205 3205 3205 3205 3205 3205 3205 3205 3205 3205 3205 3205 3205 3205 3204 3204 3204 3204 3203 3203 3203 3202 3202 3201 3201 3201 3200 3199 3198 3198 3197 3195 3193 3193 3193 3194 3194
3193 3195 3196 3198 3199 3200 3201 3202 3203 3204 3204 3204 3204 3205 3205 3205 3205 3205 3205 3205 3205 3205 3205 3205 3205 3205 3204 3204 3204 3205 3205 3205 3205 3205 3205 3205 3205 3205 3205 3205 3204 3204 3204 3204 3203 3203 3202 3202 3201 3201 3200 3199 3199 3198 3197 3196 3194 3194 3194 3194 3193 3193
3192 3193 3195 3197 3198 3199 3200 3201 3202 3203 3203 3203 3204 3204 3204 3205 3204 3205 3204 3205 3205 3204 3204 3204 3204 3204 3204 3204 3204 3204 3205 3205 3205 3205 3205 3205 3205 3205 3205 3205 3205 3204 3204 3204 3203 3203 3202 3202 3201 3200 3200 3199 3198 3197 3197 3194 3193 3194 3194 3194 3194 3194
3190 3192 3194 3196 3197 3198 3199 3200 3201 3201 3202 3202 3203 3203 3204 3204 3204 3204 3204 3204 3204 3204 3204 3204 3204 3203 3204 3204 3204 3204 3204 3204 3205 3205 3205 3205 3205 3205 3205 3205 3204 3204 3204 3204 3203 3203 3203 3202 3201 3200 3200 3199 3198 3197 3195 3193 3193 3194 3194 3194 3194 3194
3190 3191 3193 3194 3196 3197 3198 3199 3199 3200 3201 3201 3202 3202 3203 3203 3203 3203 3203 3203 3203 3203 3203 3203 3203 3203 3203 3203 3203 3203 3204 3204 3204 3204 3204 3204 3205 3205 3205 3204 3204 3204 3204 3204 3203 3203 3202 3201 3200 3200 3200 3198 3198 3196 3193 3193 3194 3195 3194 3194 3194 3193
3189 3190 3191 3193 3195 3196 3197 3198 3198 3199 3200 3200 3201 3201 3202 3202 3202 3202 3202 3202 3202 3202 3202 3202 3202 3202 3202 3203 3203 3203 3203 3203 3203 3203 3203 3204 3204 3204 3204 3204 3204 3204 3204 3203 3203 3202 3202 3201 3200 3199 3199 3198 3197 3194 3193 3196 3196 3194 3194 3193 3193 3193
3188 3189 3190 3192 3193 3194 3195 3196 3196 3198 3199 3199 3200 3200 3201 3201 3201 3201 3201 3201 3201 3201 3201 3202 3202 3202 3202 3202 3202 3202 3202 3202 3202 3203 3203 3203 3203 3204 3204 3204 3204 3203 3203 3203 3202 3202 3201 3200 3199 3199 3198 3197 3197 3193 3192 3196 3195 3194 3194 3193 3193 3193
3187 3188 3189 3190 3192 3193 3194 3194 3195 3196 3197 3197 3198 3199 3199 3199 3200 3200 3200 3200 3200 3200 3200 3200 3201 3201 3201 3201 3201 3201 3201 3201 3201 3202 3202 3202 3203 3203 3203 3203 3203 3203 3202 3202 3202 3201 3200 3199 3198 3198 3197 3197 3196 3192 3190 3195 3195 3193 3194 3193 3193 3193
3186 3187 3188 3189 3190 3191 3192 3192 3193 3195 3195 3196 3196 3197 3197 3198 3198 3199 3199 3199 3199 3199 3199 3199 3199 3200 3200 3200 3200 3200 3200 3200 3200 3201 3201 3201 3202 3202 3202 3202 3202 3202 3202 3201 3201 3201 3200 3198 3197 3198 3197 3196 3196 3192 3189 3193 3196 3194 3193 3193 3192 3192
3184 3185 3186 3187 3188 3189 3190 3191 3192 3193 3194 3194 3195 3195 3196 3196 3197 3197 3198 3198 3198 3198 3198 3198 3198 3199 3199 3199 3199 3199 3199 3199 3199 3200 3200 3201 3201 3201 3201 3201 3201 3201 3201 3201 3200 3200 3199 3198 3198 3198 3197 3195 3195 3193 3188 3189 3194 3194 3192 3192 3192 3192
3182 3183 3184 3185 3186 3187 3188 3189 3190 3191 3191 3192 3193 3193 3194 3195 3195 3196 3197 3197 3197 3197 3197 3197 3198 3198 3198 3198 3198 3198 3198 3198 3198 3198 3199 3199 3200 3200 3200 3200 3200 3200 3200 3200 3199 3199 3198 3197 3198 3197 3195 3194 3193 3193 3190 3188 3191 3193 3192 3191 3191 3191
3181 3182 3183 3184 3184 3185 3186 3187 3188 3189 3190 3190 3191 3192 3193 3193 3194 3194 3195 3196 3196 3196 3196 3196 3196 3197 3197 3197 3197 3197 3197 3197 3197 3197 3197 3198 3198 3199 3199 3199 3199 3199 3199 3199 3199 3198 3197 3196 3196 3195 3194 3193 3191 3190 3191 3188 3188 3189 3190 3191 3191 3190
3179 3181 3181 3182 3183 3184 3185 3185 3186 3187 3188 3189 3189 3190 3191 3192 3192 3193 3194 3194 3194 3194 3195 3195 3195 3196 3196 3196 3196 3195 3195 3195 3195 3195 3196 3196 3197 3197 3197 3198 3198 3198 3198 3198 3198 3197 3196 3195 3195 3194 3192 3191 3188 3188 3190 3190 3188 3188 3189 3190 3191 3190
3178 3179 3180 3181 3182 3183 3183 3184 3185 3186 3187 3187 3188 3189 3189 3190 3191 3191 3192 3192 3193 3193 3193 3194 3194 3194 3195 3195 3194 3194 3194 3194 3194 3194 3194 3195 3196 3196 3196 3196 3196 3197 3197 3197 3197 3196 3195 3194 3193 3192 3191 3189 3187 3187 3190 3190 3190 3190 3190 3191 3191 3190
3177 3178 3179 3180 3181 3181 3182 3183 3184 3185 3186 3186 3187 3187 3188 3189 3189 3189 3190 3191 3191 3192 3192 3192 3193 3193 3193 3193 3193 3193 3193 3193 3193 3193 3193 3194 3194 3195 3195 3195 3195 3196 3196 3196 3196 3195 3194 3192 3192 3192 3190 3189 3188 3187 3189 3189 3189 3190 3190 3191 3191 3190
3176 3177 3178 3178 3179 3180 3181 3182 3183 3184 3184 3185 3185 3186 3187 3187 3187 3187 3188 3189 3190 3190 3191 3191 3191 3192 3192 3192 3192 3192 3192 3192 3191 3191 3192 3192 3193 3193 3193 3193 3194 3194 3195 3195 3195 3194 3192 3190 3191 3192 3191 3190 3190 3189 3189 3189 3189 3190 3190 3191 3190 3190
3174 3176 3176 3177 3178 3179 3180 3181 3181 3182 3183 3184 3184 3185 3185 3185 3185 3186 3186 3187 3188 3189 3189 3190 3190 3190 3191 3191 3191 3191 3191 3190 3190 3190 3190 3191 3191 3192 3192 3192 3192 3193 3194 3194 3193 3192 3191 3190 3190 3191 3190 3189 3190 3190 3189 3189 3190 3191 3191 3190 3190 3190
3173 3174 3175 3176 3177 3178 3179 3179 3180 3181 3182 3182 3183 3183 3183 3184 3184 3184 3185 3186 3187 3187 3187 3188 3189 3189 3189 3189 3189 3189 3189 3189 3189 3189 3189 3189 3190 3190 3190 3190 3191 3191 3192 3192 3191 3190 3190 3189 3189 3189 3189 3188 3189 3189 3189 3189 3190 3190 3190 3190 3189 3189
3172 3173 3174 3175 3176 3177 3178 3178 3179 3179 3180 3181 3181 3182 3182 3182 3182 3183 3184 3184 3185 3185 3186 3187 3188 3188 3188 3188 3188 3188 3188 3188 3188 3188 3188 3188 3188 3188 3189 3189 3189 3190 3191 3190 3190 3189 3188 3188 3187 3187 3187 3187 3188 3188 3188 3188 3189 3188 3189 3189 3189 3188
3171 3172 3173 3174 3175 3176 3176 3177 3178 3178 3179 3179 3180 3180 3180 3181 3181 3181 3182 3183 3184 3184 3185 3186 3187 3187 3187 3187 3187 3187 3187 3187 3187 3186 3186 3187 3187 3187 3187 3187 3188 3188 3189 3189 3188 3187 3186 3186 3185 3185 3186 3186 3186 3186 3186 3187 3187 3187 3187 3188 3188 3187
3169 3171 3172 3173 3174 3174 3175 3176 3177 3177 3178 3178 3178 3178 3179 3179 3179 3180 3181 3181 3182 3183 3184 3185 3185 3186 3186 3186 3186 3186 3186 3186 3185 3185 3185 3185 3186 3185 3185 3186 3186 3187 3187 3187 3186 3185 3184 3184 3183 3183 3185 3185 3184 3184 3184 3185 3186 3186 3186 3187 3187 3186
3168 3169 3171 3172 3172 3173 3174 3175 3175 3176 3176 3177 3177 3177 3177 3178 3178 3178 3179 3180 3181 3181 3183 3184 3184 3184 3184 3184 3185 3185 3185 3184 3184 3183 3183 3183 3184 3184 3184 3184 3185 3185 3185 3185 3184 3184 3183 3181 3180 3182 3183 3183 3183 3183 3183 3183 3184 3185 3185 3186 3185 3185
3166 3168 3169 3170 3171 3172 3172 3173 3174 3174 3175 3175 3175 3176 3176 3176 3176 3176 3177 3178 3179 3180 3181 3182 3183 3183 3183 3183 3183 3183 3183 3183 3183 3182 3182 3182 3183 3183 3183 3183 3183 3183 3183 3183 3183 3182 3181 3179 3178 3180 3181 3182 3182 3181 3181 3182 3183 3183 3184 3184 3184 3184
3164 3166 3168 3169 3169 3170 3171 3172 3173 3173 3174 3174 3174 3174 3175 3175 3175 3175 3175 3176 3177 3178 3179 3181 3182 3182 3182 3182 3182 3182 3182 3182 3182 3181 3180 3180 3181 3182 3181 3181 3181 3182 3181 3181 3181 3180 3180 3178 3176 3177 3179 3180 3180 3179 3179 3180 3181 3181 3182 3183 3183 3183
3161 3163 3165 3166 3167 3168 3169 3170 3171 3172 3172 3173 3173 3173 3174 3174 3174 3174 3174 3174 3175 3177 3178 3179 3180 3180 3181 3181 3180 3180 3181 3181 3180 3180 3179 3178 3179 3181 3181 3179 3179 3180 3180 3180 3179 3178 3178 3177 3175 3174 3176 3177 3177 3177 3177 3177 3178 3180 3180 3181 3181 3181
3158 3160 3162 3164 3165 3166 3168 3169 3170 3171 3171 3171 3172 3172 3172 3172 3172 3172 3172 3173 3174 3175 3176 3178 3178 3179 3179 3179 3179 3179 3179 3180 3179 3178 3178 3176 3176 3179 3180 3178 3177 3178 3178 3177 3177 3177 3176 3175 3175 3174 3174 3175 3175 3175 3175 3175 3176 3178 3178 3179 3179 3180
3155 3157 3159 3161 3163 3164 3166 3167 3168 3169 3169 3170 3171 3171 3170 3170 3170 3171 3171 3171 3172 3173 3175 3176 3177 3177 3178 3178 3178 3178 3178 3178 3178 3177 3176 3175 3173 3176 3179 3178 3176 3175 3176 3175 3175 3174 3174 3173 3173 3173 3173 3173 3173 3173 3173 3173 3174 3176 3176 3177 3177 3178
3152 3154 3157 3159 3160 3162 3164 3165 3166 3167 3168 3169 3169 3169 3169 3169 3169 3169 3169 3170 3170 3171 3173 3174 3175 3175 3176 3176 3176 3177 3177 3177 3176 3176 3175 3174 3171 3171 3176 3178 3176 3173 3173 3173 3173 3172 3171 3171 3171 3171 3171 3171 3171 3171 3171 3171 3172 3173 3174 3175 3175 3176
3149 3152 3154 3156 3158 3160 3161 3163 3164 3165 3166 3167 3167 3167 3167 3167 3167 3167 3167 3168 3168 3169 3171 3172 3173 3174 3174 3175 3175 3175 3176 3175 3175 3174 3173 3172 3170 3167 3169 3174 3176 3173 3170 3170 3170 3169 3169 3169 3169 3169 3169 3169 3169 3169 3169 3169 3170 3171 3172 3173 3173 3174
3147 3149 3151 3154 3155 3157 3159 3161 3162 3163 3164 3165 3165 3165 3165 3165 3166 3166 3166 3166 3166 3167 3169 3170 3171 3172 3173 3173 3173 3174 3174 3173 3173 3172 3171 3171 3169 3164 3162 3166 3171 3173 3170 3167 3166 3166 3166 3166 3166 3166 3166 3166 3167 3167 3167 3168 3168 3169 3170 3171 3171 3171
3143 3146 3149 3151 3153 3155 3157 3158 3160 3161 3162 3163 3163 3163 3163 3164 3164 3164 3164 3164 3165 3165 3166 3168 3169 3170 3171 3171 3171 3171 3172 3172 3171 3171 3170 3169 3168 3164 3160 3159 3163 3167 3169 3166 3164 3163 3164 3164 3164 3164 3164 3164 3164 3164 3164 3165 3166 3166 3167 3168 3169 3169
3141 3143 3146 3148 3150 3153 3154 3156 3157 3158 3159 3160 3161 3161 3161 3162 3162 3163 3163 3162 3163 3164 3165 3166 3167 3168 3169 3169 3169 3169 3170 3170 3169 3169 3169 3168 3167 3163 3160 3158 3156 3160 3164 3165 3163 3162 3161 3161 3161 3162 3162 3162 3162 3162 3161 3161 3163 3163 3164 3165 3167 3167
3138 3140 3143 3145 3147 3150 3152 3153 3155 3156 3157 3158 3158 3159 3159 3160 3160 3161 3161 3161 3161 3162 3163 3164 3165 3166 3167 3167 3167 3167 3168 3168 3168 3168 3167 3166 3165 3162 3159 3157 3154 3154 3156 3160 3162 3161 3159 3158 3157 3157 3158 3158 3159 3159 3158 3158 3159 3160 3161 3163 3164 3165
3136 3137 3140 3142 3144 3147 3149 3151 3152 3153 3154 3155 3156 3157 3157 3158 3158 3158 3159 3159 3160 3160 3161 3162 3163 3164 3164 3165 3165 3165 3166 3166 3166 3165 3165 3164 3163 3161 3158 3156 3154 3151 3151 3153 3157 3158 3158 3156 3154 3153 3154 3155 3155 3155 3156 3156 3157 3158 3160 3161 3162 3163
3132 3135 3137 3139 3141 3144 3146 3147 3149 3149 3151 3152 3153 3154 3155 3156 3156 3156 3157 3157 3158 3158 3159 3160 3160 3161 3162 3163 3163 3163 3164 3164 3163 3163 3163 3162 3160 3159 3157 3155 3153 3151 3150 3149 3150 3152 3153 3152 3151 3150 3151 3152 3152 3153 3153 3154 3155 3157 3159 3160 3161 3162
3128 3131 3133 3135 3138 3141 3143 3144 3145 3146 3148 3149 3151 3152 3153 3154 3154 3154 3154 3155 3155 3156 3157 3158 3158 3159 3161 3161 3161 3161 3161 3161 3161 3161 3161 3160 3158 3157 3155 3154 3153 3151 3149 3147 3146 3147 3148 3147 3147 3147 3148 3148 3148 3150 3151 3151 3153 3155 3157 3159 3160 3161
Wind_Speed
18 16 14 13 12 11 9 8 6 5 4 3 2 2 3 5 6 6 5 5 4 3 4 4 5 6 6 6 6 6 6 6 6 7 7 7 8 8 8 8 9 9 9 9 9 10 12 12 12 11 10 9 8 8 8 8 6 6 5 5 6 7
20 18 16 14 14 12 11 10 9 8 6 5 4 4 5 6 7 7 7 6 6 5 5 5 6 7 7 7 7 7 7 7 7 7 7 8 8 8 8 8 9 9 8 9 10 11 12 12 12 11 10 9 8 8 8 7 7 6 6 6 5 6
21 19 18 16 16 14 14 13 12 10 9 7 6 6 6 7 9 9 8 8 7 7 6 6 6 7 8 8 8 8 8 8 7 7 7 8 8 9 9 8 8 8 8 9 10 11 12 13 12 11 11 9 8 8 7 8 7 6 6 6 5 4
22 20 19 18 18 16 16 16 15 13 11 10 8 8 8 9 10 10 10 9 8 8 7 7 7 8 9 9 10 9 9 9 8 8 8 8 9 9 9 9 8 8 9 10 11 11 12 13 12 12 10 9 9 8 8 8 6 5 6 6 6 4
22 20 20 20 19 18 17 18 16 15 13 12 11 10 10 10 11 11 11 10 10 9 9 8 8 9 10 10 10 10 10 10 10 9 9 9 8 9 9 9 9 8 9 10 11 11 11 12 12 11 10 9 9 8 8 7 5 6 5 5 6 4
21 21 21 20 20 20 19 19 18 16 15 14 13 12 11 12 12 11 11 11 11 11 10 10 9 10 10 10 11 12 11 11 11 10 10 9 8 8 9 9 9 9 9 10 11 11 11 11 12 10 9 9 8 9 9 5 6 7 4 5 5 4
22 21 21 21 21 21 20 20 20 18 17 16 14 13 13 13 13 12 12 12 12 12 11 10 10 10 10 11 12 13 12 12 12 11 11 10 9 8 9 9 10 10 10 10 10 10 10 10 11 10 9 9 8 11 10 4 6 5 5 5 4 3
21 21 20 21 21 21 21 22 21 19 18 17 16 15 14 14 14 13 13 13 13 13 13 12 11 11 10 11 12 13 13 13 13 12 12 11 10 9 8 9 10 10 10 10 10 10 11 10 10 9 9 9 8 12 9 4 5 4 5 4 3 3
20 20 20 20 20 21 21 21 21 19 19 17 16 16 15 15 15 14 13 13 14 14 14 13 12 10 10 11 12 13 14 14 14 13 13 12 11 9 9 9 10 10 10 10 10 10 11 11 10 9 8 8 8 13 10 3 4 5 4 3 4 4
19 20 20 20 20 20 20 20 19 18 19 18 17 17 16 16 16 15 14 14 15 14 14 14 12 11 10 10 11 13 14 15 15 14 14 13 12 11 9 10 10 10 10 10 10 10 11 11 10 8 8 8 8 13 13 5 3 4 3 2 4 5
20 21 21 20 19 19 19 20 19 18 19 18 18 18 16 17 17 15 15 15 15 15 15 14 13 12 11 11 11 12 13 15 15 15 14 14 13 12 11 10 10 11 10 9 10 11 12 11 7 7 9 9 8 11 15 10 2 3 4 3 4 5
21 20 19 17 16 17 18 18 18 19 19 19 19 18 17 18 17 16 16 16 16 16 15 14 13 12 12 12 11 12 12 14 14 15 15 14 14 13 12 11 11 11 10 9 10 12 13 11 7 8 11 10 9 10 13 14 7 3 3 3 5 6
20 18 16 15 14 14 15 16 16 18 19 19 19 18 18 18 18 17 17 17 17 16 16 15 14 13 13 12 12 12 12 13 14 14 15 14 15 15 14 13 12 11 10 9 10 11 12 12 10 10 11 11 12 11 10 14 11 7 4 3 6 6
19 17 16 14 13 13 13 13 14 16 17 17 17 18 18 19 18 18 18 18 18 17 17 15 14 13 13 13 13 13 12 13 14 14 14 15 15 15 15 13 12 11 10 10 10 11 13 13 12 11 12 13 16 12 7 10 11 9 7 5 7 7
20 18 16 15 13 12 12 12 13 13 14 16 16 17 18 18 18 18 19 19 19 18 17 16 15 14 13 13 14 13 13 13 14 14 14 15 15 15 15 14 13 11 11 11 11 12 13 15 14 13 14 15 16 12 7 8 9 8 9 8 7 7
21 19 17 15 13 12 11 11 11 12 13 14 15 15 16 17 19 19 20 20 20 20 18 17 15 14 14 14 14 13 13 13 14 14 14 15 14 15 16 15 13 12 12 11 12 13 14 17 17 15 16 15 15 15 12 11 9 8 10 10 8 7
22 20 18 15 13 11 11 11 10 10 11 12 13 13 14 16 19 20 20 21 21 21 20 18 16 15 14 15 15 13 13 13 14 14 14 14 14 15 16 15 14 13 12 12 13 14 15 18 16 14 16 17 16 15 15 14 11 9 11 11 9 8
23 20 18 15 12 10 9 9 9 8 9 10 11 12 13 15 18 20 21 22 22 22 21 19 17 16 15 15 15 14 13 14 14 13 14 14 15 16 16 16 16 15 13 12 13 15 16 17 15 13 13 15 16 15 15 15 12 10 11 10 9 8
23 20 18 14 11 9 8 8 7 7 7 7 8 10 11 13 17 20 21 22 23 23 22 20 18 16 15 16 15 14 14 13 13 13 13 14 15 17 16 16 17 16 15 13 14 15 17 17 15 14 13 14 16 15 15 14 12 11 9 8 9 9
23 20 16 13 10 8 8 7 6 6 5 5 7 8 10 12 15 19 21 22 23 24 23 20 18 16 16 16 16 15 15 13 12 13 13 14 15 17 17 17 18 19 18 16 16 17 18 17 16 15 15 16 17 17 16 14 12 11 8 7 10 9
22 20 16 12 10 9 8 7 6 5 4 4 5 6 8 10 13 17 20 22 23 24 24 20 18 17 16 17 16 15 15 13 13 13 14 15 15 17 18 18 19 20 20 18 17 18 19 18 17 17 17 16 17 17 16 14 13 11 8 8 9 9
22 19 16 12 11 10 10 9 8 6 5 4 4 4 6 9 12 16 19 21 23 24 23 20 18 17 17 17 17 16 15 14 13 14 15 15 15 18 19 18 19 19 19 18 17 18 19 19 19 19 17 16 17 17 15 15 14 11 8 8 9 9
24 20 17 13 12 11 11 11 10 8 7 4 3 5 7 9 11 15 17 19 22 23 23 20 18 17 18 18 17 17 15 14 14 14 15 16 16 17 18 19 19 19 19 17 17 18 20 21 20 18 17 17 17 17 16 15 14 12 9 10 10 8
26 23 19 15 13 12 11 11 10 9 7 5 4 6 7 8 9 12 16 19 21 22 22 20 18 18 18 18 18 17 16 14 14 15 16 17 17 17 18 18 19 19 19 17 18 20 21 22 22 19 16 16 17 18 18 16 14 12 11 11 10 9
28 26 22 18 15 13 12 11 10 9 7 5 4 6 7 7 7 9 13 17 19 21 21 20 18 18 19 19 19 18 16 14 14 15 16 17 17 16 17 18 18 19 19 18 19 21 21 23 23 20 17 17 19 19 18 16 14 13 12 12 12 10
29 29 26 23 18 15 13 12 12 11 8 6 5 6 7 7 7 8 10 14 17 19 19 19 18 19 19 19 20 19 16 14 14 15 17 18 17 16 17 19 19 20 20 21 22 22 21 22 23 22 20 19 21 20 18 17 15 14 14 13 12 10
31 31 30 27 21 18 16 13 13 12 9 7 7 8 7 6 7 8 10 12 15 19 19 18 19 19 19 20 20 19 17 15 16 16 17 18 19 17 17 19 21 21 22 22 22 22 21 22 22 22 20 20 21 21 20 19 17 15 14 13 12 10
33 33 32 29 24 20 18 16 14 13 11 9 9 9 8 7 8 8 11 13 16 18 18 18 19 19 20 21 21 19 18 17 17 17 18 18 19 18 16 18 22 23 22 22 23 22 22 22 22 21 21 21 21 21 20 21 20 16 14 14 12 10
33 34 33 31 27 22 20 19 16 15 13 12 11 11 9 8 9 9 11 14 16 17 18 19 20 20 21 21 20 19 18 18 18 18 19 19 20 19 17 17 20 23 23 22 22 22 22 21 20 21 21 21 21 21 22 23 22 18 14 13 13 11
32 33 33 31 29 24 22 21 18 17 15 13 13 12 10 9 9 10 11 15 18 18 19 20 21 21 21 21 20 19 19 19 19 20 21 20 21 23 22 18 18 21 23 22 21 21 22 21 21 20 20 21 21 21 23 23 21 18 14 13 14 13
31 32 31 31 30 26 23 22 20 18 16 15 14 13 12 10 9 11 12 15 19 20 20 20 21 21 20 20 20 20 21 20 20 21 21 20 21 25 26 23 18 18 21 22 22 22 22 23 22 20 19 19 20 21 22 21 19 17 14 14 15 14
33 32 30 31 31 28 24 22 20 19 17 16 16 15 13 12 11 11 12 15 19 21 21 21 20 19 20 21 21 22 22 21 22 22 22 21 22 25 28 27 23 19 19 22 23 24 24 24 23 21 20 19 20 21 21 21 21 19 16 15 16 15
35 33 31 31 31 29 26 23 21 19 18 17 17 16 16 15 13 12 12 15 19 22 22 21 20 20 20 21 22 22 22 21 22 22 22 22 22 24 27 28 28 24 20 20 22 24 25 26 25 22 21 20 20 21 22 22 23 22 18 15 16 15
37 35 33 32 32 31 28 26 22 20 19 19 19 18 18 18 15 13 13 16 19 23 23 22 22 21 21 21 22 22 21 21 22 22 22 22 22 24 26 28 29 27 22 20 20 22 26 27 27 25 22 21 20 21 23 22 24 23 17 14 16 15
39 37 35 34 34 33 30 28 25 22 21 21 21 20 21 20 18 16 15 16 19 23 25 24 23 23 22 21 21 22 21 20 21 23 23 24 23 24 26 28 28 28 27 25 23 23 25 25 26 25 21 20 19 20 19 19 23 22 14 13 16 14
41 39 37 36 36 34 31 29 27 25 24 24 23 23 23 23 21 18 17 17 19 22 25 25 25 25 23 22 22 21 20 21 23 24 24 24 25 25 26 27 27 28 28 28 28 26 25 24 24 24 21 20 21 20 18 19 22 17 12 14 16 13
44 41 40 39 37 34 32 31 29 28 27 28 26 25 25 25 23 21 19 19 20 22 25 26 27 26 24 22 22 21 21 22 24 25 24 24 25 26 27 26 25 27 27 28 29 27 25 23 22 22 21 21 21 18 17 21 22 15 11 14 14 13
Wind_Direction
212 209 206 206 207 208 211 214 217 221 228 243 270 308 321 319 314 308 303 295 286 280 282 289 294 294 295 296 296 298 299 303 306 310 311 314 317 320 323 327 333 340 347 346 339 336 338 345 349 352 359 2 2 5 5 359 347 331 337 13 33 39
214 214 214 214 215 214 217 221 223 228 235 249 266 289 302 304 304 302 297 291 282 273 268 272 280 285 289 292 293 295 295 298 298 300 304 305 308 310 316 323 329 335 338 333 331 332 334 340 344 351 357 356 357 358 357 349 333 336 355 11 24 39
215 216 218 218 220 219 222 226 227 231 237 247 260 274 286 291 293 296 293 288 281 271 263 262 268 276 282 286 288 289 290 291 290 291 293 293 298 304 312 319 323 328 327 325 327 329 332 335 340 349 351 351 352 348 350 339 331 351 1 356 6 29
217 219 221 221 223 223 225 229 231 233 236 243 252 263 272 279 283 287 288 284 278 269 262 259 260 265 271 276 279 283 284 284 285 284 284 286 294 301 308 313 315 320 319 319 324 328 329 331 338 344 344 346 342 339 342 323 323 3 356 350 360 10
221 223 225 226 227 227 229 232 234 235 237 242 247 256 263 269 274 278 281 279 274 267 261 258 256 258 261 267 272 277 279 280 281 282 281 283 290 298 304 306 308 312 312 316 322 324 325 329 335 337 338 339 333 332 320 295 328 16 358 350 358 0
226 227 229 231 232 233 234 235 238 237 239 242 244 251 257 261 265 268 273 272 271 266 260 258 256 257 259 263 267 271 274 277 278 279 279 279 283 291 296 299 302 304 307 312 317 320 321 327 328 329 333 331 330 321 297 290 357 12 2 357 360 357
230 231 233 235 236 237 238 239 241 240 241 243 244 248 252 256 257 259 264 265 268 266 262 260 257 257 259 260 262 265 269 272 274 274 275 276 278 282 288 293 295 299 304 308 312 315 316 321 322 323 328 324 327 308 292 335 357 353 8 357 354 352
231 233 235 237 239 240 241 242 243 242 242 243 244 246 247 250 250 252 257 259 263 266 265 264 260 258 259 258 258 261 264 266 269 270 272 274 274 275 280 285 290 297 302 304 308 309 310 315 315 316 318 318 322 300 293 3 339 337 18 341 334 341
232 234 236 237 239 240 241 242 242 241 241 242 242 243 243 244 245 246 250 254 259 263 266 267 265 264 262 259 257 257 259 262 264 267 270 272 273 273 274 278 286 292 297 302 303 304 306 307 306 306 305 307 314 298 295 353 337 333 7 322 318 318
233 234 235 235 236 238 239 240 240 238 237 236 236 238 239 239 240 241 243 248 254 259 263 268 269 269 268 263 259 257 257 258 261 264 267 271 273 273 272 275 282 286 294 298 297 298 299 303 305 297 292 299 307 300 299 317 1 336 340 328 312 303
227 229 229 229 230 232 233 235 234 232 230 229 230 233 234 235 235 235 238 242 249 256 260 266 268 269 271 269 264 259 258 257 259 262 265 268 271 272 272 275 278 283 290 293 291 293 295 299 293 271 279 292 295 297 298 301 342 349 327 328 305 298
219 219 220 220 222 225 226 227 226 224 224 224 225 228 230 232 232 231 234 238 245 252 258 263 264 267 271 273 271 266 262 260 259 259 261 264 267 270 271 273 276 280 286 284 284 288 293 294 276 260 274 285 286 286 289 294 312 345 321 310 299 294
212 211 212 212 213 215 217 218 217 217 218 220 223 225 227 229 229 229 230 235 241 248 255 260 261 263 268 272 273 270 267 263 260 257 257 260 262 266 268 271 274 276 279 277 278 285 287 285 277 273 278 279 274 268 274 290 307 326 319 295 288 288
208 206 204 202 202 202 205 208 210 213 214 217 220 223 226 227 228 228 229 233 239 246 252 257 259 261 265 270 271 270 268 265 262 257 256 256 259 263 267 270 271 272 273 273 276 279 280 282 282 278 272 271 269 260 261 284 298 312 310 296 287 290
206 202 197 192 192 192 196 200 204 209 211 214 218 222 225 227 229 229 229 231 236 243 250 254 256 258 263 267 267 268 268 266 263 259 255 255 258 263 266 268 268 269 270 271 273 274 279 281 278 271 266 270 276 278 277 280 287 293 293 292 288 291
204 198 189 183 180 181 186 191 198 204 208 212 217 222 225 227 229 230 230 231 236 241 248 252 254 256 260 263 264 266 268 267 263 260 257 256 257 261 264 265 264 265 267 271 274 276 280 281 283 289 292 289 285 285 285 277 274 272 279 286 287 288
202 192 181 173 166 166 171 177 186 193 203 211 217 223 226 228 231 232 230 230 235 240 247 251 252 253 256 260 262 265 267 265 262 261 259 257 255 255 259 260 260 261 265 270 275 277 279 284 293 305 304 295 283 281 284 277 269 267 276 284 288 290
198 187 177 169 165 166 169 173 179 184 194 206 215 223 228 232 233 233 232 231 234 239 246 251 251 251 254 257 260 262 264 263 263 264 262 259 255 253 254 256 259 261 264 268 269 272 277 283 291 293 289 283 275 274 278 279 276 271 274 286 294 294
195 185 179 174 172 174 178 179 180 183 187 197 210 221 230 236 237 236 234 232 234 239 244 250 251 251 252 255 258 260 263 265 266 266 265 263 258 256 253 254 259 263 264 265 265 270 277 282 285 282 276 270 266 266 267 268 270 265 263 282 295 295
194 188 184 180 179 178 184 185 183 185 182 190 208 221 232 240 241 239 236 235 236 238 243 249 251 251 252 254 256 259 265 268 269 269 268 265 262 261 258 256 260 264 266 266 266 271 276 280 280 276 273 269 265 264 262 260 260 258 256 272 289 292
195 193 190 184 180 180 186 190 191 190 186 190 207 224 238 245 243 239 237 237 237 239 243 248 251 251 252 254 256 262 267 271 272 272 271 269 266 263 260 258 261 265 266 266 266 271 275 277 275 273 271 268 263 259 259 261 261 257 251 265 284 287
202 198 194 186 182 184 189 196 199 199 201 199 215 249 259 255 244 235 235 238 239 240 243 248 251 251 252 254 258 264 268 272 275 275 274 273 269 265 261 260 262 263 263 262 262 267 273 272 270 273 269 262 262 262 260 259 257 251 248 264 278 280
210 205 199 191 189 192 195 202 209 211 212 213 250 279 276 264 248 233 231 234 238 241 243 248 250 249 251 254 259 265 268 273 277 278 277 274 270 267 263 261 261 259 259 259 259 263 267 267 267 269 266 261 263 265 261 256 254 254 260 270 273 271
218 214 207 199 197 200 202 212 219 219 217 225 267 286 281 270 255 238 231 231 235 239 243 247 248 247 249 253 258 264 267 272 277 278 277 275 273 270 265 262 260 260 259 257 259 263 265 266 268 265 260 259 260 259 256 256 258 260 264 267 265 263
223 220 215 208 205 207 213 225 228 223 222 232 264 281 280 274 262 247 239 236 234 236 241 246 247 245 247 252 258 263 266 270 275 277 276 273 271 270 268 265 262 262 262 259 259 264 265 267 271 270 265 264 261 257 255 255 256 254 255 259 259 257
225 223 220 215 212 213 222 232 230 223 220 229 253 268 273 279 273 255 244 242 238 236 240 245 246 245 246 251 257 262 266 269 274 275 274 271 268 269 271 268 265 264 263 262 263 266 268 268 270 273 276 274 267 261 261 259 254 248 248 254 256 253
225 224 221 219 217 218 226 234 232 224 222 231 246 254 262 278 280 261 243 240 238 237 240 244 244 244 246 250 255 260 263 267 273 275 273 268 265 269 272 269 266 265 264 264 267 270 269 268 269 271 274 274 267 262 263 261 257 250 245 250 254 250
225 223 221 220 219 221 228 235 235 228 228 235 240 244 256 273 283 271 247 236 235 238 241 243 244 244 246 251 255 259 261 265 270 274 275 269 265 267 268 267 267 267 267 269 272 271 269 269 269 269 270 267 260 256 257 256 253 247 241 248 255 251
223 222 221 221 221 222 228 234 235 232 229 232 237 241 251 268 282 281 257 239 235 237 240 243 246 247 248 253 259 260 260 264 268 272 275 272 269 265 261 264 269 270 270 271 270 270 269 269 268 269 269 262 255 252 252 251 244 239 241 253 261 257
220 221 221 222 222 222 229 233 234 234 232 232 238 242 249 264 278 280 266 246 236 235 238 244 248 250 251 256 261 261 260 263 268 271 274 274 273 271 268 267 266 267 271 270 266 267 268 268 267 269 267 260 257 254 255 255 245 238 244 252 256 258
218 219 220 222 223 224 229 233 234 235 235 235 237 240 247 258 270 276 271 253 240 236 237 244 251 255 256 259 261 261 260 261 265 270 273 275 275 277 279 277 265 260 267 269 267 267 269 269 269 269 265 260 258 256 258 257 242 227 229 241 250 254
217 217 217 220 223 226 230 233 235 235 236 238 237 239 246 252 262 272 272 257 242 237 238 243 252 257 258 259 261 262 262 263 266 271 276 279 280 279 282 284 277 264 261 264 267 268 269 270 270 268 265 259 254 255 254 247 235 223 218 232 249 252
218 216 216 218 221 225 230 234 236 237 239 241 240 239 243 248 254 264 267 258 245 239 240 244 250 256 258 260 265 267 268 268 270 276 280 283 283 279 280 282 280 273 262 259 264 267 269 270 270 270 267 261 255 253 250 242 236 232 223 227 242 248
218 217 217 219 220 223 229 234 237 239 241 243 241 238 240 244 248 255 262 259 248 242 241 244 249 256 260 265 270 273 273 272 273 276 279 282 282 280 280 280 281 281 276 269 267 267 270 272 272 269 263 261 259 253 251 245 234 230 227 231 240 243
220 219 220 221 222 224 229 233 236 239 242 245 242 236 236 239 242 246 255 260 253 245 243 246 249 255 261 268 274 276 276 273 271 273 277 283 284 281 282 282 284 286 284 282 277 271 271 272 273 271 262 257 258 254 257 248 231 226 225 233 240 238
222 221 222 225 226 228 230 233 236 239 243 245 242 236 233 235 238 240 248 257 255 248 246 248 250 253 260 269 275 278 277 272 270 273 280 287 288 286 285 284 284 285 285 284 282 279 277 274 274 274 266 258 253 250 253 241 225 222 224 230 237 234
226 224 224 227 230 231 232 233 235 237 241 243 241 236 232 233 237 238 243 251 252 249 248 248 250 253 259 267 275 278 277 274 274 278 285 290 291 292 292 290 288 287 287 286 285 285 283 280 277 273 270 265 249 235 235 227 212 203 218 232 236 234